Tracking 34747 objects as of 17-Jul-2026
HD Live streaming from Space Station
objects crossing your sky now

BREEZE-M DEB

Track BREEZE-M DEB now!
10-day predictions


NORAD ID: 32040
Int'l Code: 2006-006T
Perigee: 404.9 km
Apogee: 12,976.9 km
Inclination: 51.6 °
Period: 247.6 minutes
Semi major axis: 13061 km
RCS: 0.077 m2 (small)
Launch date: February 28, 2006
Source: Commonwealth of Independent States (former USSR) (CIS)
Launch site: TYURATAM MISSILE AND SPACE COMPLEX (TTMTR)

Note: This is SATELLITE DEBRIS
Your satellite tracking list
Your tracking list is empty




NASA's NSSDC Master Catalog

Two Line Element Set (TLE):
1 32040U 06006T   26174.11859897  .00006784  00000-0  35809-2 0  9991
2 32040  51.6211 118.6539 4812481 330.7417   9.2371  5.81558967270772
Source of the keplerian elements: AFSPC